FW9830 Weather Reports


Display with metric or nautical units.
time (UTC)temp
F
wind
direction
speed
MPH
gust
MPH
rain 1hr
in
rain 24hr
in
rain mn
in
humidity
%
barometer
mb
20240530023621 55 135 7.0 8.0 0.00 0.00 0.00 64 1023.8
20240530023120 55 139 6.0 7.0 0.00 0.00 0.00 67 1023.8
20240530022620 55 144 6.0 7.0 0.00 0.00 0.00 69 1023.8
20240530022119 55 138 6.0 7.0 0.00 0.00 0.00 69 1024.0
20240530021618 55 129 5.0 7.0 0.00 0.00 0.00 68 1023.7
20240530021116 55 131 5.0 9.0 0.00 0.00 0.00 67 1023.6
20240530020615 55 133 6.0 7.0 0.00 0.00 0.00 68 1023.7
20240530020114 55 129 5.0 9.0 0.00 0.00 0.00 66 1023.6
20240530015613 56 134 7.0 8.0 0.00 0.00 0.00 65 1023.6
20240530015112 56 135 5.0 9.0 0.00 0.00 0.00 66 1023.5
20240530014611 56 156 5.0 8.0 0.00 0.00 0.00 65 1023.6
20240530014110 55 134 7.0 7.0 0.00 0.00 0.00 69 1023.5
20240530013604 56 132 6.0 8.0 0.00 0.00 0.00 67 1023.4
20240530013101 57 133 6.0 9.0 0.00 0.00 0.00 66 1023.5
20240530012601 57 126 5.0 5.0 0.00 0.00 0.00 65 1023.4
20240530012059 57 124 4.0 7.0 0.00 0.00 0.00 65 1023.5
20240530011537 57 137 5.0 8.0 0.00 0.00 0.00 67 1023.3
20240530011032 57 142 6.0 7.0 0.00 0.00 0.00 66 1023.4
20240530010529 58 139 5.0 8.0 0.00 0.00 0.00 67 1023.4
20240530010026 59 141 6.0 7.0 0.00 0.00 0.00 66 1023.2
20240530005523 59 138 5.0 7.0 0.00 0.00 0.00 66 1023.2
20240530005022 60 144 7.0 9.0 0.00 0.00 0.00 64 1023.1
20240530004520 60 138 8.0 9.0 0.00 0.00 0.00 63 1023.3
20240530004020 60 138 7.0 9.0 0.00 0.00 0.00 63 1023.2
20240530003518 61 140 6.0 8.0 0.00 0.00 0.00 64 1023.4
20240530003018 61 141 7.0 10.0 0.00 0.00 0.00 60 1023.2
20240530002517 62 139 11.0 11.0 0.00 0.00 0.00 58 1023.0
20240530002016 62 138 8.0 8.0 0.00 0.00 0.00 63 1023.2
20240530001514 62 155 7.0 10.0 0.00 0.00 0.00 61 1023.1
20240530001014 62 153 6.0 9.0 0.00 0.00 0.00 60 1023.1
20240530000512 62 141 9.0 11.0 0.00 0.00 0.00 58 1023.0
20240530000010 63 150 7.0 11.0 0.00 0.00 0.00 57 1023.4
20240529235510 63 140 6.0 10.0 0.00 0.00 0.00 60 1023.0
20240529235010 63 145 7.0 10.0 0.00 0.00 0.00 58 1023.2
20240529234509 65 129 4.0 6.0 0.00 0.00 0.00 53 1022.9
20240529234007 65 135 2.0 7.0 0.00 0.00 0.00 50 1023.1
20240529233505 65 96 3.0 14.0 0.00 0.00 0.00 52 1023.2
20240529233004 65 108 2.0 7.0 0.00 0.00 0.00 47 1023.3
20240529232502 65 88 6.0 10.0 0.00 0.00 0.00 44 1022.9
20240529232001 65 90 5.0 9.0 0.00 0.00 0.00 45 1023.1
20240529231500 65 90 7.0 9.0 0.00 0.00 0.00 47 1023.2
20240529230959 65 78 5.0 14.0 0.00 0.00 0.00 47 1023.1
20240529230457 66 88 6.0 12.0 0.00 0.00 0.00 45 1023.0
20240529225955 66 48 2.0 9.0 0.00 0.00 0.00 47 1023.1
20240529225454 65 94 7.0 9.0 0.00 0.00 0.00 44 1023.2
20240529224954 65 73 9.0 12.0 0.00 0.00 0.00 47 1023.3
20240529224452 65 78 6.0 13.0 0.00 0.00 0.00 44 1023.0
20240529223951 66 87 8.0 14.0 0.00 0.00 0.00 47 1023.1
20240529223450 66 80 5.0 13.0 0.00 0.00 0.00 50 1023.2
20240529222946 66 67 5.0 9.0 0.00 0.00 0.00 47 1023.1
20240529222445 66 74 4.0 7.0 0.00 0.00 0.00 50 1023.2
20240529221944 66 108 7.0 13.0 0.00 0.00 0.00 49 1023.1
20240529221443 65 93 8.0 15.0 0.00 0.00 0.00 47 1023.2
20240529220941 66 90 6.0 6.0 0.00 0.00 0.00 47 1023.5
20240529220439 66 53 6.0 10.0 0.00 0.00 0.00 49 1023.1
20240529215938 66 90 3.0 7.0 0.00 0.00 0.00 51 1023.2
20240529215436 66 90 5.0 7.0 0.00 0.00 0.00 50 1023.1
20240529214935 65 80 7.0 9.0 0.00 0.00 0.00 44 1023.1
20240529214433 66 101 5.0 7.0 0.00 0.00 0.00 45 1023.3
20240529213932 65 77 6.0 13.0 0.00 0.00 0.00 48 1023.3
20240529213429 66 42 9.0 11.0 0.00 0.00 0.00 51 1023.3
20240529212928 65 83 7.0 11.0 0.00 0.00 0.00 46 1023.2
20240529212427 66 14 2.0 9.0 0.00 0.00 0.00 50 1023.0
20240529211926 66 90 1.0 9.0 0.00 0.00 0.00 53 1023.5
20240529211425 66 94 7.0 9.0 0.00 0.00 0.00 53 1023.4
20240529210924 66 38 4.0 6.0 0.00 0.00 0.00 54 1023.4
20240529210423 67 53 4.0 5.0 0.00 0.00 0.00 51 1023.5
20240529205922 66 93 6.0 8.0 0.00 0.00 0.00 48 1023.6
20240529205419 65 82 3.0 7.0 0.00 0.00 0.00 54 1023.4
20240529204918 65 83 5.0 6.0 0.00 0.00 0.00 52 1023.6
20240529204415 65 74 3.0 10.0 0.00 0.00 0.00 51 1023.6
20240529203912 65 81 5.0 13.0 0.00 0.00 0.00 54 1023.7
20240529203411 65 34 4.0 10.0 0.00 0.00 0.00 55 1023.8
20240529202911 65 82 6.0 14.0 0.00 0.00 0.00 56 1023.8
20240529202406 66 4 2.0 8.0 0.00 0.00 0.00 56 1023.6
20240529201905 66 4 4.0 5.0 0.00 0.00 0.00 52 1023.6
20240529201405 66 30 4.0 7.0 0.00 0.00 0.00 54 1024.0
20240529200841 66 90 8.0 13.0 0.00 0.00 0.00 58 1023.9
20240529200340 66 58 4.0 9.0 0.00 0.00 0.00 56 1023.9
20240529195838 65 98 2.0 7.0 0.00 0.00 0.00 54 1023.9
20240529195334 65 106 3.0 5.0 0.00 0.00 0.00 52 1023.9
20240529194833 65 84 6.0 7.0 0.00 0.00 0.00 50 1024.0
20240529194332 65 68 3.0 10.0 0.00 0.00 0.00 51 1024.1
20240529193830 64 57 6.0 13.0 0.00 0.00 0.00 57 1024.1
20240529193329 65 60 0.0 13.0 0.00 0.00 0.00 57 1024.4
20240529192829 64 45 2.0 9.0 0.00 0.00 0.00 51 1024.2
20240529192326 64 81 6.0 10.0 0.00 0.00 0.00 55 1024.5
20240529191825 65 46 6.0 10.0 0.00 0.00 0.00 53 1024.4
20240529191323 64 94 4.0 5.0 0.00 0.00 0.00 50 1024.4
20240529190822 64 71 6.0 7.0 0.00 0.00 0.00 51 1024.3
20240529190320 64 90 2.0 9.0 0.00 0.00 0.00 57 1024.4
20240529185819 64 92 5.0 11.0 0.00 0.00 0.00 56 1024.5
20240529185320 64 53 3.0 8.0 0.00 0.00 0.00 55 1024.5
20240529184820 64 47 3.0 5.0 0.00 0.00 0.00 52 1024.4
20240529184318 63 84 1.0 10.0 0.00 0.00 0.00 53 1024.5
20240529183816 63 47 3.0 11.0 0.00 0.00 0.00 52 1024.6
20240529183315 63 326 3.0 9.0 0.00 0.00 0.00 50 1024.7
20240529182813 63 28 2.0 9.0 0.00 0.00 0.00 53 1024.6
20240529182311 63 57 4.0 13.0 0.00 0.00 0.00 54 1024.8
20240529181810 62 100 10.0 13.0 0.00 0.00 0.00 49 1024.8
20240529181309 63 103 13.0 16.0 0.00 0.00 0.00 52 1024.6
20240529180808 63 46 7.0 12.0 0.00 0.00 0.00 51 1024.8
20240529180305 62 85 11.0 16.0 0.00 0.00 0.00 53 1024.6
20240529175805 62 106 10.0 12.0 0.00 0.00 0.00 51 1024.7
20240529175305 62 128 5.0 19.0 0.00 0.00 0.00 52 1024.7
20240529174802 62 99 4.0 16.0 0.00 0.00 0.00 57 1024.7
20240529174301 62 84 13.0 15.0 0.00 0.00 0.00 51 1024.9
20240529173758 62 88 11.0 13.0 0.00 0.00 0.00 48 1024.9
20240529173257 63 82 6.0 10.0 0.00 0.00 0.00 56 1024.7
20240529172752 63 84 11.0 11.0 0.00 0.00 0.00 49 1024.9
20240529172249 62 80 10.0 15.0 0.00 0.00 0.00 47 1025.0
20240529171747 63 66 7.0 11.0 0.00 0.00 0.00 54 1024.9
20240529171245 63 90 3.0 7.0 0.00 0.00 0.00 56 1024.9
20240529170743 63 20 3.0 9.0 0.00 0.00 0.00 58 1024.8
20240529170241 63 83 4.0 7.0 0.00 0.00 0.00 53 1024.6
20240529165741 62 9 3.0 11.0 0.00 0.00 0.00 61 1024.9
20240529165239 63 86 4.0 6.0 0.00 0.00 0.00 63 1024.9
20240529164737 63 45 3.0 9.0 0.00 0.00 0.00 61 1024.8
20240529164235 62 79 3.0 15.0 0.00 0.00 0.00 67 1024.8
20240529163734 62 124 3.0 7.0 0.00 0.00 0.00 62 1025.0
20240529163233 62 75 3.0 6.0 0.00 0.00 0.00 64 1024.8
20240529162731 62 73 4.0 11.0 0.00 0.00 0.00 67 1024.9
20240529162229 62 59 4.0 9.0 0.00 0.00 0.00 71 1024.8
20240529161726 61 90 4.0 7.0 0.00 0.00 0.00 70 1024.7
20240529161224 62 95 2.0 6.0 0.00 0.00 0.00 65 1025.0
20240529160723 61 49 5.0 7.0 0.00 0.00 0.00 67 1024.7
20240529160222 60 76 10.0 10.0 0.00 0.00 0.00 70 1025.0
20240529155721 61 45 2.0 5.0 0.00 0.00 0.00 66 1024.6
20240529155220 60 21 4.0 10.0 0.00 0.00 0.00 65 1024.8
20240529154719 61 278 1.0 8.0 0.00 0.00 0.00 65 1024.9
20240529154218 61 209 1.0 5.0 0.00 0.00 0.00 71 1024.9
20240529153716 61 86 3.0 8.0 0.00 0.00 0.00 70 1024.6
20240529153216 60 66 6.0 12.0 0.00 0.00 0.00 70 1024.6
20240529152715 60 90 4.0 8.0 0.00 0.00 0.00 69 1024.4
20240529152213 60 74 8.0 17.0 0.00 0.00 0.00 68 1024.4
20240529151711 60 24 2.0 9.0 0.00 0.00 0.00 71 1024.1
20240529151209 60 332 3.0 7.0 0.00 0.00 0.00 70 1024.1
20240529150710 60 311 2.0 9.0 0.00 0.00 0.00 69 1024.1
20240529150209 60 28 2.0 9.0 0.00 0.00 0.00 70 1023.9
20240529145709 60 329 3.0 9.0 0.00 0.00 0.00 70 1024.1
20240529145207 60 84 3.0 6.0 0.00 0.00 0.00 71 1024.1
20240529144707 59 101 7.0 11.0 0.00 0.00 0.00 70 1024.1
20240529144206 59 85 4.0 7.0 0.00 0.00 0.00 72 1024.1
20240529143706 59 58 3.0 11.0 0.00 0.00 0.00 74 1024.0
20240529143204 59 55 2.0 8.0 0.00 0.00 0.00 74 1023.9
20240529142703 59 93 4.0 4.0 0.00 0.00 0.00 72 1023.7
20240529142202 59 79 3.0 8.0 0.00 0.00 0.00 72 1023.6
20240529141701 59 82 1.0 6.0 0.00 0.00 0.00 72 1023.5
20240529141200 59 78 3.0 6.0 0.00 0.00 0.00 70 1023.6
20240529140658 59 52 3.0 7.0 0.00 0.00 0.00 71 1023.5
20240529140156 58 107 2.0 6.0 0.00 0.00 0.00 74 1023.6
20240529135654 58 90 5.0 12.0 0.00 0.00 0.00 75 1023.5
20240529135153 58 73 4.0 10.0 0.00 0.00 0.00 73 1023.4
20240529134651 58 83 7.0 11.0 0.00 0.00 0.00 74 1023.5
20240529134150 58 87 7.0 10.0 0.00 0.00 0.00 75 1023.3
20240529133650 57 75 2.0 11.0 0.00 0.00 0.00 74 1023.4
20240529133148 57 83 4.0 7.0 0.00 0.00 0.00 75 1023.4
20240529132648 57 72 5.0 8.0 0.00 0.00 0.00 77 1023.2
20240529132147 57 88 6.0 7.0 0.00 0.00 0.00 75 1023.4
20240529131648 58 75 3.0 8.0 0.00 0.00 0.00 77 1023.3
20240529131146 57 67 2.0 9.0 0.00 0.00 0.00 77 1023.3
20240529130646 58 90 3.0 9.0 0.00 0.00 0.00 76 1023.2
20240529130146 57 32 2.0 5.0 0.00 0.00 0.00 77 1023.2
20240529125645 58 109 1.0 7.0 0.00 0.00 0.00 78 1023.2
20240529125144 58 41 4.0 4.0 0.00 0.00 0.00 77 1023.1
20240529124643 58 259 0.0 5.0 0.00 0.00 0.00 79 1023.0
20240529124142 58 7 1.0 7.0 0.00 0.00 0.00 79 1022.8
20240529123640 58 98 2.0 5.0 0.00 0.00 0.00 80 1022.7
20240529123138 58 81 0.0 5.0 0.00 0.00 0.00 82 1022.8
20240529122636 58 98 3.0 4.0 0.00 0.00 0.00 82 1022.7
20240529122136 57 15 2.0 5.0 0.00 0.00 0.00 82 1023.0
20240529121635 57 0 0.0 4.0 0.00 0.00 0.00 84 1022.9
20240529121133 57 3 5.0 10.0 0.00 0.00 0.00 81 1022.9
20240529120631 58 61 3.0 4.0 0.00 0.00 0.00 81 1022.7
20240529120129 58 289 1.0 3.0 0.00 0.00 0.00 81 1022.4
20240529115627 57 187 0.0 3.0 0.00 0.00 0.00 84 1022.6
20240529115125 56 308 0.0 3.0 0.00 0.00 0.00 85 1022.7
20240529114623 55 292 0.0 3.0 0.00 0.00 0.00 86 1022.4
20240529114123 53 8 0.0 3.0 0.00 0.00 0.00 89 1022.3
20240529113622 53 115 2.0 3.0 0.00 0.00 0.00 89 1022.3
20240529113121 53 299 0.0 6.0 0.00 0.00 0.00 90 1022.1
20240529112619 53 327 2.0 4.0 0.00 0.00 0.00 90 1022.1
20240529112118 53 325 1.0 6.0 0.00 0.00 0.00 90 1021.9
20240529111617 53 334 1.0 4.0 0.00 0.00 0.00 90 1022.2
20240529111116 53 0 3.0 5.0 0.00 0.00 0.00 90 1021.9
20240529110616 53 11 0.0 3.0 0.00 0.00 0.00 90 1021.9
20240529110114 53 0 3.0 5.0 0.00 0.00 0.00 91 1021.7
20240529105613 53 5 1.0 2.0 0.00 0.00 0.00 91 1021.9
20240529105112 52 349 1.0 4.0 0.00 0.00 0.00 92 1021.8
20240529104611 52 0 2.0 3.0 0.00 0.00 0.00 92 1021.6
20240529104109 52 342 3.0 5.0 0.00 0.00 0.00 91 1021.5
20240529103608 52 305 2.0 5.0 0.00 0.00 0.00 91 1021.6
20240529103108 52 337 3.0 5.0 0.00 0.00 0.00 91 1021.6
20240529102608 53 334 3.0 4.0 0.00 0.00 0.00 90 1021.2
20240529102107 53 26 2.0 4.0 0.00 0.00 0.00 89 1021.4
20240529101605 53 352 0.0 5.0 0.00 0.00 0.00 89 1021.0
20240529101104 53 6 1.0 6.0 0.00 0.00 0.00 88 1021.0
20240529100603 53 0 2.0 4.0 0.00 0.00 0.00 88 1020.8
20240529100103 53 320 2.0 6.0 0.00 0.00 0.00 88 1021.0
20240529095602 53 334 2.0 4.0 0.00 0.00 0.00 89 1021.2
20240529095101 53 315 2.0 5.0 0.00 0.00 0.00 88 1020.8
20240529094601 53 322 0.0 5.0 0.00 0.00 0.00 88 1020.8
20240529094100 53 348 3.0 6.0 0.00 0.00 0.00 88 1020.4
20240529093558 53 0 1.0 4.0 0.00 0.00 0.00 88 1020.7
20240529093057 54 12 1.0 4.0 0.00 0.00 0.00 88 1020.7
20240529092557 53 334 1.0 3.0 0.00 0.00 0.00 90 1020.5
20240529092056 54 337 0.0 5.0 0.00 0.00 0.00 91 1020.6
20240529091555 53 319 0.0 5.0 0.00 0.00 0.00 92 1020.5
20240529091054 54 302 3.0 4.0 0.00 0.00 0.00 92 1020.5
20240529090552 54 321 2.0 4.0 0.00 0.00 0.00 91 1020.3
20240529090051 54 355 0.0 3.0 0.00 0.00 0.00 91 1020.3
20240529085550 54 348 1.0 3.0 0.00 0.00 0.00 91 1020.3
20240529085049 54 350 2.0 3.0 0.00 0.00 0.00 91 1020.4
20240529084548 54 345 2.0 4.0 0.00 0.00 0.00 90 1020.4
20240529084046 54 246 1.0 2.0 0.00 0.00 0.00 90 1020.4
20240529083544 54 297 2.0 3.0 0.00 0.00 0.00 90 1020.4
20240529083044 54 346 0.0 2.0 0.00 0.00 0.00 90 1020.1
20240529082543 54 310 2.0 3.0 0.00 0.00 0.00 90 1020.2
20240529082041 54 312 2.0 3.0 0.00 0.00 0.00 90 1020.1
20240529081539 54 315 2.0 3.0 0.00 0.00 0.00 89 1020.1
20240529081038 54 255 0.0 2.0 0.00 0.00 0.00 90 1020.0
20240529080537 54 345 1.0 4.0 0.00 0.00 0.00 90 1020.1
20240529080036 54 312 2.0 2.0 0.00 0.00 0.00 91 1020.0
20240529075534 54 315 0.0 3.0 0.00 0.00 0.00 91 1020.0
20240529075032 54 315 2.0 4.0 0.00 0.00 0.00 90 1019.9
20240529074531 54 66 1.0 5.0 0.00 0.00 0.00 90 1019.7
20240529074030 54 327 2.0 3.0 0.00 0.00 0.00 90 1020.1
20240529073528 55 14 0.0 3.0 0.00 0.00 0.00 90 1020.0
20240529073028 54 342 1.0 2.0 0.00 0.00 0.00 90 1020.0
20240529072526 54 115 2.0 2.0 0.00 0.00 0.00 90 1019.9
20240529072025 54 306 0.0 2.0 0.00 0.00 0.00 91 1020.1
20240529071525 54 325 1.0 2.0 0.00 0.00 0.00 90 1019.9
20240529071024 54 107 0.0 3.0 0.00 0.00 0.00 90 1019.9
20240529070523 54 110 0.0 2.0 0.00 0.00 0.00 90 1019.8
20240529070022 54 8 0.0 2.0 0.00 0.00 0.00 90 1020.0
20240529065520 54 114 1.0 4.0 0.00 0.00 0.00 90 1019.8
20240529065019 55 124 2.0 2.0 0.00 0.00 0.00 90 1019.8
20240529064518 55 237 0.0 2.0 0.00 0.00 0.00 91 1019.8
20240529064015 55 74 1.0 3.0 0.00 0.00 0.00 91 1019.9
20240529063514 55 0 0.0 4.0 0.00 0.00 0.00 93 1019.8
20240529063014 55 84 0.0 2.0 0.00 0.00 0.00 93 1019.8
20240529062512 55 35 0.0 3.0 0.00 0.00 0.00 93 1019.6
20240529062012 55 318 0.0 3.0 0.00 0.00 0.00 93 1019.8
20240529061511 55 3 0.0 3.0 0.00 0.00 0.00 93 1019.7
20240529061008 55 270 3.0 3.0 0.00 0.00 0.00 93 1019.8
20240529060506 55 5 2.0 2.0 0.00 0.00 0.00 93 1019.7
20240529060006 55 334 0.0 3.0 0.00 0.00 0.00 93 1019.8
20240529055504 55 356 2.0 2.0 0.00 0.00 0.00 93 1019.6
20240529055004 55 180 0.0 2.0 0.00 0.00 0.00 93 1019.6
20240529054504 55 188 0.0 2.0 0.00 0.00 0.00 93 1019.5
20240529054001 55 333 5.0 5.0 0.00 0.00 0.00 93 1019.6
20240529053500 55 297 1.0 4.0 0.00 0.00 0.00 94 1019.6
20240529052959 55 255 2.0 3.0 0.00 0.00 0.00 94 1019.4
20240529052458 55 309 3.0 3.0 0.00 0.00 0.00 94 1019.3
20240529051956 55 327 2.0 3.0 0.00 0.00 0.00 94 1019.4
20240529051455 55 330 2.0 2.0 0.00 0.00 0.00 94 1019.4
20240529050955 55 315 2.0 3.0 0.00 0.00 0.00 94 1019.3
20240529050453 55 320 3.0 5.0 0.00 0.00 0.00 94 1019.3
20240529045952 55 338 4.0 4.0 0.00 0.56 0.56 94 1019.4
20240529045452 55 348 1.0 4.0 0.00 0.56 0.56 94 1019.1
20240529044951 55 338 2.0 4.0 0.00 0.56 0.56 94 1019.4
20240529044450 55 346 2.0 4.0 0.00 0.56 0.56 94 1019.1
20240529043947 55 327 2.0 3.0 0.00 0.56 0.56 94 1019.1
20240529043445 55 270 1.0 5.0 0.00 0.56 0.56 94 1019.1
20240529042943 55 312 2.0 3.0 0.00 0.56 0.56 94 1019.1
20240529042443 55 297 3.0 5.0 0.00 0.56 0.56 94 1019.0
20240529041943 55 285 1.0 3.0 0.00 0.56 0.56 94 1018.9
20240529041442 55 295 2.0 2.0 0.00 0.56 0.56 94 1018.9
20240529040941 55 277 1.0 3.0 0.00 0.56 0.56 94 1018.8
20240529040441 55 283 1.0 2.0 0.00 0.56 0.56 94 1019.1
20240529035940 55 274 0.0 3.0 0.00 0.56 0.56 94 1018.8
20240529035438 55 289 1.0 4.0 0.00 0.56 0.56 95 1019.1
20240529035046 55 270 1.0 3.0 0.00 0.56 0.56 95 1018.9
20240529034813 55 284 3.0 3.0 0.00 0.56 0.56 95 1019.0
20240529033752 55 294 2.0 4.0 0.00 0.56 0.56 95 1019.0
20240529032250 55 295 2.0 4.0 0.00 0.56 0.56 95 1019.0
20240529030407 55 292 2.0 3.0 0.00 0.56 0.56 95 1018.8
20240529025025 55 286 3.0 3.0 0.00 0.56 0.56 95 1018.5